| time (UTC) | temp C | wind direction | speed KPH | gust KPH | rain 1hr cm | rain 24hr cm | rain mn cm | humidity % | barometer mb |
| 20260502123005 | 4 | 252 | 0.0 | 0.0 | 0.00 | 0.05 | 0.00 | 97 | 1016.8 |
| 20260502121502 | 3 | 252 | 0.0 | 0.0 | 0.00 | 0.05 | 0.00 | 97 | 1016.7 |
| 20260502114530 | 2 | 190 | 0.0 | 0.0 | 0.00 | 0.05 | 0.00 | 97 | 1016.7 |
| 20260502113029 | 1 | 245 | 0.0 | 0.0 | 0.00 | 0.05 | 0.00 | 97 | 1016.6 |
| 20260502111526 | 1 | 245 | 0.0 | 0.0 | 0.00 | 0.05 | 0.00 | 97 | 1016.6 |
| 20260502110025 | 1 | 245 | 0.0 | 0.0 | 0.00 | 0.05 | 0.00 | 96 | 1016.5 |
| 20260502104532 | 1 | 245 | 0.0 | 0.0 | 0.00 | 0.05 | 0.00 | 96 | 1016.7 |
| 20260502103054 | 1 | 245 | 0.0 | 0.0 | 0.00 | 0.05 | 0.00 | 96 | 1016.6 |
| 20260502101608 | 1 | 245 | 0.0 | 0.0 | 0.00 | 0.05 | 0.00 | 96 | 1016.7 |
| 20260502071526 | 3 | 245 | 0.0 | 0.0 | 0.00 | 0.05 | 0.05 | 95 | 1016.2 |
| 20260502070038 | 3 | 245 | 0.0 | 0.0 | 0.00 | 0.05 | 0.05 | 95 | 1016.1 |
| 20260502064524 | 3 | 245 | 0.0 | 0.0 | 0.00 | 0.05 | 0.05 | 95 | 1016.4 |
| 20260502063029 | 3 | 245 | 0.0 | 0.0 | 0.00 | 0.05 | 0.05 | 95 | 1016.7 |
| 20260502061523 | 3 | 245 | 0.0 | 0.0 | 0.00 | 0.05 | 0.05 | 95 | 1016.6 |
| 20260502060034 | 3 | 245 | 0.0 | 0.0 | 0.00 | 0.05 | 0.05 | 95 | 1016.9 |
| 20260502054532 | 3 | 245 | 0.0 | 0.0 | 0.00 | 0.05 | 0.05 | 95 | 1016.9 |
| 20260502053019 | 2 | 245 | 0.0 | 0.0 | 0.00 | 0.05 | 0.05 | 95 | 1017.0 |
| 20260502051519 | 2 | 245 | 0.0 | 0.0 | 0.00 | 0.05 | 0.05 | 95 | 1017.1 |
| 20260502050020 | 2 | 245 | 0.0 | 0.0 | 0.00 | 0.05 | 0.05 | 94 | 1017.0 |
| 20260502044517 | 2 | 245 | 0.0 | 0.0 | 0.00 | 0.05 | 0.05 | 94 | 1017.1 |
| 20260502043013 | 3 | 245 | 0.0 | 0.0 | 0.00 | 0.05 | 0.05 | 94 | 1017.2 |
| 20260502041527 | 3 | 245 | 0.0 | 0.0 | 0.00 | 0.05 | 0.05 | 93 | 1017.0 |
| 20260502040021 | 3 | 245 | 0.0 | 0.0 | 0.00 | 0.05 | 0.05 | 93 | 1016.9 |
| 20260502034510 | 3 | 245 | 0.0 | 0.0 | 0.00 | 0.05 | 0.05 | 91 | 1016.9 |
| 20260502033020 | 4 | 245 | 0.0 | 0.0 | 0.00 | 0.05 | 0.05 | 90 | 1016.8 |
| 20260502031508 | 4 | 245 | 0.0 | 0.0 | 0.00 | 0.05 | 0.05 | 89 | 1016.8 |
| 20260502030050 | 5 | 245 | 0.0 | 0.0 | 0.00 | 0.05 | 0.05 | 86 | 1016.8 |
| 20260502024546 | 5 | 245 | 0.0 | 0.0 | 0.00 | 0.05 | 0.05 | 85 | 1016.6 |
| 20260502023047 | 6 | 245 | 0.0 | 0.0 | 0.00 | 0.05 | 0.05 | 81 | 1016.6 |
| 20260502021532 | 7 | 245 | 0.0 | 3.2 | 0.00 | 0.05 | 0.05 | 79 | 1016.4 |
| 20260502020031 | 7 | 271 | 0.0 | 8.0 | 0.00 | 0.05 | 0.05 | 78 | 1016.3 |
| 20260502014537 | 7 | 309 | 3.2 | 8.0 | 0.00 | 0.05 | 0.05 | 78 | 1016.1 |
| 20260502013103 | 7 | 261 | 0.0 | 6.4 | 0.00 | 0.05 | 0.05 | 77 | 1015.6 |
| 20260502011608 | 8 | 261 | 1.6 | 6.4 | 0.00 | 0.05 | 0.05 | 75 | 1015.5 |
| 20260502010053 | 8 | 258 | 0.0 | 11.3 | 0.00 | 0.05 | 0.05 | 73 | 1015.3 |
| 20260502004553 | 8 | 283 | 0.0 | 9.7 | 0.00 | 0.05 | 0.05 | 72 | 1015.0 |
| 20260502003052 | 8 | 302 | 6.4 | 17.7 | 0.00 | 0.05 | 0.05 | 69 | 1014.9 |
| 20260502001559 | 9 | 341 | 6.4 | 16.1 | 0.00 | 0.05 | 0.05 | 68 | 1014.6 |
| 20260502000100 | 10 | 305 | 11.3 | 24.1 | 0.00 | 0.05 | 0.05 | 65 | 1014.2 |
| 20260501234547 | 10 | 306 | 11.3 | 19.3 | 0.00 | 0.05 | 0.05 | 64 | 1013.6 |
| 20260501233102 | 11 | 296 | 8.0 | 22.5 | 0.00 | 0.05 | 0.05 | 65 | 1013.5 |
| 20260501231558 | 11 | 310 | 6.4 | 16.1 | 0.00 | 0.05 | 0.05 | 62 | 1013.4 |
| 20260501230113 | 12 | 309 | 4.8 | 19.3 | 0.00 | 0.05 | 0.05 | 58 | 1013.1 |
| 20260501224556 | 12 | 267 | 8.0 | 25.7 | 0.00 | 0.05 | 0.05 | 62 | 1012.6 |
| 20260501223048 | 12 | 44 | 6.4 | 14.5 | 0.00 | 0.05 | 0.05 | 69 | 1012.6 |
| 20260501221540 | 12 | 274 | 6.4 | 20.9 | 0.00 | 0.05 | 0.05 | 71 | 1012.4 |
| 20260501220041 | 12 | 252 | 6.4 | 14.5 | 0.00 | 0.05 | 0.05 | 73 | 1012.5 |
| 20260501214538 | 12 | 253 | 3.2 | 12.9 | 0.00 | 0.05 | 0.05 | 74 | 1012.4 |
| 20260501213038 | 11 | 246 | 3.2 | 9.7 | 0.00 | 0.05 | 0.05 | 77 | 1012.4 |
| 20260501211538 | 10 | 234 | 0.0 | 8.0 | 0.00 | 0.15 | 0.05 | 80 | 1012.4 |
| 20260501210039 | 10 | 244 | 1.6 | 8.0 | 0.00 | 0.15 | 0.05 | 81 | 1012.4 |
| 20260501204534 | 10 | 255 | 1.6 | 11.3 | 0.00 | 0.15 | 0.05 | 81 | 1012.5 |
| 20260501203031 | 10 | 265 | 8.0 | 17.7 | 0.03 | 0.15 | 0.05 | 80 | 1012.6 |
| 20260501201530 | 10 | 268 | 1.6 | 22.5 | 0.03 | 0.18 | 0.05 | 80 | 1012.5 |
| 20260501200030 | 11 | 286 | 9.7 | 22.5 | 0.03 | 0.18 | 0.05 | 79 | 1012.5 |
| 20260501194528 | 11 | 260 | 1.6 | 17.7 | 0.03 | 0.18 | 0.05 | 79 | 1012.5 |
| 20260501193033 | 11 | 277 | 11.3 | 22.5 | 0.00 | 0.15 | 0.03 | 74 | 1012.5 |
| 20260501191526 | 11 | 286 | 0.0 | 8.0 | 0.03 | 0.18 | 0.03 | 77 | 1012.2 |
| 20260501190029 | 11 | 269 | 4.8 | 0.0 | 0.00 | 0.00 | 0.03 | 76 | 1012.3 |
| 20260501184555 | 12 | 300 | 4.8 | 12.9 | 0.03 | 0.18 | 0.03 | 72 | 1012.1 |
| 20260501183055 | 13 | 263 | 3.2 | 24.1 | 0.03 | 0.18 | 0.03 | 65 | 1012.0 |
| 20260501181556 | 14 | 267 | 4.8 | 22.5 | 0.00 | 0.15 | 0.00 | 52 | 1011.4 |
| 20260501180051 | 15 | 260 | 4.8 | 17.7 | 0.00 | 0.15 | 0.00 | 50 | 1011.2 |
| 20260501174550 | 15 | 254 | 8.0 | 24.1 | 0.00 | 0.15 | 0.00 | 49 | 1011.3 |
| 20260501173104 | 16 | 199 | 6.4 | 20.9 | 0.00 | 0.15 | 0.00 | 46 | 1011.2 |
| 20260501171545 | 16 | 233 | 6.4 | 14.5 | 0.00 | 0.18 | 0.00 | 48 | 1011.4 |
| 20260501170041 | 15 | 237 | 6.4 | 16.1 | 0.00 | 0.18 | 0.00 | 50 | 1011.7 |
| 20260501164600 | 15 | 246 | 3.2 | 20.9 | 0.00 | 0.18 | 0.00 | 50 | 1011.9 |
| 20260501163036 | 14 | 146 | 6.4 | 19.3 | 0.00 | 0.18 | 0.00 | 53 | 1011.8 |
| 20260501161504 | 14 | 239 | 6.4 | 19.3 | 0.00 | 0.18 | 0.00 | 53 | 1012.0 |
| 20260501160003 | 13 | 232 | 6.4 | 12.9 | 0.00 | 0.18 | 0.00 | 54 | 1012.1 |